Current weather by "City, St" or "zip code"  
 
Advertise Here

Current Conditions: Muscatine, IA

Overcast


39.0 F

Last Updated on Nov 23 2020, 8:55 pm CST
Humidity: 75%
Wind Speed: SE 4.6 mph
Barometer 30.25 in
Dewpoint: 32.0 F
Visibility: 10.00 mi
Precip: --
Heat Index: NA
Wind Chill: 36 F
Current conditions at:

Muscatine, IA (KMUT)

Lat: 41.36667 Lon: 91.15

Local Radar Image active severe weather and emergency alerts image image weather storm and storm spotter reports image weather observation monitoring service image
Local
Radar
Active
Alerts
Storm Reports Obs
Monitoring

Sign-up For Email & Text Message Weather Alert Notification Services


Advertise Here

Observation History for Muscatine, IA


Time Wind
(mph)
Vis
(mi)
Weather Precip (in) Temperature (F) Relative
Humidity
Wind
Chill
(F)
Heat
Index
(F)
Pressure
Air Dwpt altimeter
(in)
sea level
(mb)
Rmks
8:55 pm CST SE 4.6 10.00 Overcast -- 39.0 32.0 75% 36 NA 30.25 M
7:55 pm CST S 4.6 10.00 Overcast -- 39.0 32.0 75% 36 NA 30.26 M
6:55 pm CST SE 4.6 10.00 Overcast -- 37.0 32.0 81% 33 NA 30.28 M
5:55 pm CST N 0.0 10.00 Overcast -- 37.0 30.2 75% NA NA 30.30 M
3:35 pm CST N 0.0 10.00 Partly Cloudy -- 39.0 30.2 70% NA NA 30.31 M
2:55 pm CST N 0.0 10.00 Fair -- 37.0 30.2 75% NA NA 30.30 M
1:55 pm CST N 0.0 10.00 Fair -- 37.0 28.4 70% NA NA 30.31 M
12:55 pm CST N 0.0 10.00 Fair -- 37.0 30.2 75% NA NA 30.34 M
11:55 am CST N 0.0 10.00 Fair -- 37.0 28.4 70% NA NA 30.35 M
10:55 am CST N 3.5 10.00 Fair -- 36.0 30.2 81% NA NA 30.37 M
9:55 am CST NW 4.6 10.00 Fair -- 34.0 30.2 87% 30 NA 30.38 M
8:55 am CST NW 5.8 10.00 Fair -- 32.0 28.4 87% 26 NA 30.37 M
7:55 am CST N 0.0 10.00 Fair -- 28.0 26.6 93% NA NA 30.37 M
6:55 am CST NW 4.6 10.00 Fair -- 27.0 24.8 93% 22 NA 30.35 M
5:55 am CST W 4.6 10.00 Fair -- 28.0 26.6 93% 23 NA 30.33 M
4:35 am CST W 8.1 10.00 Fair -- 28.0 26.6 93% 20 NA 30.32 M
3:55 am CST NW 8.1 10.00 Fair -- 28.0 26.6 93% 20 NA 30.31 M
2:55 am CST W 6.9 10.00 Fair -- 30.0 28.4 93% 23 NA 30.31 M
1:55 am CST NW 6.9 10.00 Fair -- 32.0 28.4 87% 26 NA 30.30 M
12:55 am CST W 6.9 10.00 Fair -- 34.0 30.2 87% 28 NA 30.29 M
11:55 pm CST NW 6.9 10.00 Fair -- 36.0 30.2 81% 30 NA 30.28 M
10:55 pm CST W 8.1 10.00 Fair -- 36.0 30.2 81% 30 NA 30.27 M
9:55 pm CST W 6.9 10.00 Fair -- 36.0 30.2 81% 30 NA 30.26 M

Regional Weather Observation


Muscatine, IA (KMUT)

Overcast
39.0 F

Cedar Rapids Airport, IA (KCID)

Overcast
34.0 F

Washington, IA (KAWG)

Light Snow
32.0 F

Fairfield Municipal Airport, IA (KFFL)

Fog/Mist
32.0 F

Davenport Municipal Airport, IA (KDVN)

Overcast
37.0 F

Moline Quad-City Airport, IL (KMLI)

Overcast
37.0 F